Погода в Чанданагаре

Индия     17°29′42″N   78°19′32″E
темп.,
°C
ветер,
м/с
пор.,
м/с
влажн.,
%
обл.,
%
осадки,
мм/ч
давл.,
гПа
погр.,
м
4 августа, ср
ср423:30+25зюз6127488 1.4 1009383
02:30+23зюз8158480 0.3 1007651
05:30+22з7148962 0.3 1008656
08:30+25з91378100 0.0 1010868
11:30+28з9116273 0.0 10091417
14:30+28з8106299 0.0 10061538
17:30+27з61068100 0.1 1007687
20:30+24зюз61379100 0.9 1009400
5 августа, чт
чт523:30+24зюз71482100 1.1 1009633
02:30+22зюз7148775 0.0 1007645
05:30+22з7148757 0.0 1008624
08:30+24з81276100 0.0 1009904
11:30+26з8106796 0.1 10081338
14:30+27з796497 0.0 10061597
17:30+27з696684 0.1 1006805
20:30+25з41072100 0.0 1007405
6 августа, пт
пт623:30+25зюз6127499 0.1 1007532
02:30+23зюз7138588 0.1 1006601
05:30+22з6148932 0.1 1007592
08:30+25з7117473 0.0 1009914
11:30+27з796396 0.1 10081174
14:30+28з896053 0.1 10051461
17:30+27зюз6966100 0.2 1005639
20:30+25зюз41172100 0.1 1006444
7 августа, сб
сб723:30+25з51272100 0.2 1007554
02:30+24зюз7128098 0.0 1006550
05:30+22з6128684 0.0 1006578
08:30+25з7976100 0.0 1008747
11:30+29з6758100 0.1 10081509
14:30+29з675518 0.0 10051497
17:30+28з4762100 0.0 1005486
20:30+26з3769100 0.0 1007262
8 августа, вс
вс823:30+26зюз4970100 0.0 1007360
02:30+24зюз61280100 0.3 1006441
05:30+23з51184100 0.4 1007492
08:30+25з6976100 0.0 1009651
11:30+29з6657100 0.0 10081353
14:30+29з565595 0.0 10061519
17:30+29з4657100 0.0 1005945
20:30+26зюз346975 0.0 1007106